,,,PA_Meas_PMT16A,,PR_Meas_QMR101_102,,RH_Meas_QMH101,,SR_Meas_QMS101,,TA_Meas_QMH101,,GenWind,,GenWind,
date,time,status,PA,status,PR,status,RH,status,SR,status,TA,status,DirAvg,status,SpdAvg,
2009-03-23, 00:00:04,VALID,1010.74,VALID,0,VALID,85.4237,VALID,0,VALID,22.5251,VALID,89,VALID,0.699609,
2009-03-23, 00:01:04,VALID,1010.7,VALID,0,VALID,85.4161,VALID,0,VALID,22.5251,VALID,88,VALID,0.522266,
2009-03-23, 00:02:04,VALID,1010.71,VALID,0,VALID,85.4313,VALID,0,VALID,22.5251,VALID,88,VALID,0.583594,
2009-03-23, 00:03:04,VALID,1010.67,VALID,0,VALID,85.4694,VALID,0,VALID,22.5251,VALID,91,VALID,0.889063,
2009-03-23, 00:04:04,VALID,1010.64,VALID,0,VALID,85.4542,VALID,0,VALID,22.5251,VALID,84,VALID,0.874609,
2009-03-23, 00:05:04,VALID,1010.63,VALID,0,VALID,85.4847,VALID,0,VALID,22.5251,VALID,78,VALID,0.967188,
2009-03-23, 00:06:04,VALID,1010.6,VALID,0,VALID,85.4694,VALID,0,VALID,22.5056,VALID,83,VALID,1.01211,
2009-03-23, 00:07:04,VALID,1010.59,VALID,0,VALID,85.4999,VALID,0,VALID,22.5251,VALID,82,VALID,0.575391,
2009-03-23, 00:08:04,VALID,1010.55,VALID,0,VALID,85.5076,VALID,0,VALID,22.5463,VALID,90,VALID,0.407813,
2009-03-23, 00:09:04,VALID,1010.55,VALID,0,VALID,85.5076,VALID,0,VALID,22.5251,VALID,82,VALID,0.653125,
2009-03-23, 00:10:04,VALID,1010.55,VALID,0,VALID,85.5228,VALID,0,VALID,22.5251,VALID,75,VALID,0.714453,
2009-03-23, 00:11:04,VALID,1010.55,VALID,0,VALID,85.5304,VALID,0,VALID,22.4844,VALID,73,VALID,0.476953,
2009-03-23, 00:12:04,VALID,1010.54,VALID,0,VALID,85.5457,VALID,0,VALID,22.5056,VALID,73,VALID,0.520703,
2009-03-23, 00:13:04,VALID,1010.53,VALID,0,VALID,85.5533,VALID,0,VALID,22.4861,VALID,73,VALID,0.307813,
2009-03-23, 00:14:04,VALID,1010.52,VALID,0,VALID,85.5762,VALID,0,VALID,22.4861,VALID,73,VALID,0.0078125,
2009-03-23, 00:15:04,VALID,1010.51,VALID,0,VALID,85.5686,VALID,0,VALID,22.4667,VALID,73,VALID,0,
2009-03-23, 00:16:04,VALID,1010.54,VALID,0,VALID,85.5991,VALID,0,VALID,22.4861,VALID,73,VALID,0,
2009-03-23, 00:17:04,VALID,1010.53,VALID,0,VALID,85.5762,VALID,0,VALID,22.4861,VALID,76,VALID,0.671875,
2009-03-23, 00:18:04,VALID,1010.5,VALID,0,VALID,85.5991,VALID,0,VALID,22.4861,VALID,76,VALID,0.324609,
2009-03-23, 00:19:04,VALID,1010.53,VALID,0,VALID,85.5991,VALID,0,VALID,22.5056,VALID,76,VALID,0.385547,
2009-03-23, 00:20:04,VALID,1010.51,VALID,0,VALID,85.622,VALID,0,VALID,22.4861,VALID,76,VALID,0.122266,
2009-03-23, 00:21:04,VALID,1010.52,VALID,0,VALID,85.6448,VALID,0,VALID,22.4861,VALID,77,VALID,0.262109,
2009-03-23, 00:22:04,VALID,1010.5,VALID,0,VALID,85.6448,VALID,0,VALID,22.4667,VALID,76,VALID,0.341406,
2009-03-23, 00:23:04,VALID,1010.48,VALID,0,VALID,85.6372,VALID,0,VALID,22.4861,VALID,71,VALID,0.450781,
2009-03-23, 00:24:04,VALID,1010.45,VALID,0,VALID,85.6525,VALID,0,VALID,22.465,VALID,64,VALID,0,
2009-03-23, 00:25:04,VALID,1010.41,VALID,0,VALID,85.6448,VALID,0,VALID,22.465,VALID,64,VALID,0,
2009-03-23, 00:26:04,VALID,1010.41,VALID,0,VALID,85.6753,VALID,0,VALID,22.4667,VALID,65,VALID,0.344531,
2009-03-23, 00:27:04,VALID,1010.36,VALID,0,VALID,85.6753,VALID,0,VALID,22.4861,VALID,56,VALID,0.83125,
2009-03-23, 00:28:04,VALID,1010.36,VALID,0,VALID,85.683,VALID,0,VALID,22.4667,VALID,64,VALID,0.638672,
2009-03-23, 00:29:04,VALID,1010.33,VALID,0,VALID,85.6906,VALID,0,VALID,22.4861,VALID,70,VALID,0.836328,
2009-03-23, 00:30:04,VALID,1010.35,VALID,0,VALID,85.6906,VALID,0,VALID,22.4861,VALID,51,VALID,0.990625,
2009-03-23, 00:31:04,VALID,1010.36,VALID,0,VALID,85.7135,VALID,0,VALID,22.4861,VALID,56,VALID,0.263672,
2009-03-23, 00:32:04,VALID,1010.34,VALID,0,VALID,85.7287,VALID,0,VALID,22.4861,VALID,56,VALID,0.371094,
2009-03-23, 00:33:04,VALID,1010.36,VALID,0,VALID,85.7211,VALID,0,VALID,22.465,VALID,67,VALID,0.608594,
2009-03-23, 00:34:04,VALID,1010.38,VALID,0,VALID,85.7363,VALID,0,VALID,22.4667,VALID,60,VALID,0.869531,
2009-03-23, 00:35:04,VALID,1010.38,VALID,0,VALID,85.7516,VALID,0,VALID,22.4878,VALID,74,VALID,0.537891,
2009-03-23, 00:36:04,VALID,1010.36,VALID,0,VALID,85.7516,VALID,0,VALID,22.4667,VALID,76,VALID,0.676953,
2009-03-23, 00:37:04,VALID,1010.35,VALID,0,VALID,85.7363,VALID,0,VALID,22.4472,VALID,49,VALID,0.404297,
2009-03-23, 00:38:04,VALID,1010.37,VALID,0,VALID,85.7592,VALID,0,VALID,22.426,VALID,61,VALID,0.426562,
2009-03-23, 00:39:04,VALID,1010.36,VALID,0,VALID,85.7745,VALID,0,VALID,22.4472,VALID,79,VALID,0.323047,
2009-03-23, 00:40:05,VALID,1010.36,VALID,0,VALID,85.7363,VALID,0,VALID,22.4472,VALID,79,VALID,0.130859,
2009-03-23, 00:41:05,VALID,1010.34,VALID,0,VALID,85.7363,VALID,0,VALID,22.4472,VALID,21,VALID,0.227734,
2009-03-23, 00:42:05,VALID,1010.33,VALID,0,VALID,85.7516,VALID,0,VALID,22.4472,VALID,47,VALID,0.244141,
2009-03-23, 00:43:05,VALID,1010.34,VALID,0,VALID,85.7287,VALID,0,VALID,22.4472,VALID,47,VALID,0.269922,
2009-03-23, 00:44:05,VALID,1010.33,VALID,0,VALID,85.744,VALID,0.105969,VALID,22.4667,VALID,41,VALID,0.312109,
2009-03-23, 00:45:05,VALID,1010.29,VALID,0,VALID,85.7516,VALID,0,VALID,22.4472,VALID,47,VALID,0.0617188,
2009-03-23, 00:46:05,VALID,1010.3,VALID,0,VALID,85.7516,VALID,0,VALID,22.4472,VALID,62,VALID,0.328516,
2009-03-23, 00:47:05,VALID,1010.33,VALID,0,VALID,85.7821,VALID,0,VALID,22.4455,VALID,66,VALID,0.159766,
2009-03-23, 00:48:05,VALID,1010.3,VALID,0,VALID,85.7974,VALID,0,VALID,22.4667,VALID,66,VALID,0.262891,
2009-03-23, 00:49:05,VALID,1010.3,VALID,0,VALID,85.8126,VALID,0,VALID,22.4667,VALID,98,VALID,0.479688,
2009-03-23, 00:50:05,VALID,1010.3,VALID,0,VALID,85.7897,VALID,0,VALID,22.4861,VALID,83,VALID,0.0148437,
2009-03-23, 00:51:05,VALID,1010.32,VALID,0,VALID,85.7897,VALID,0,VALID,22.4861,VALID,77,VALID,0.00585938,
2009-03-23, 00:52:05,VALID,1010.31,VALID,0,VALID,85.7974,VALID,0,VALID,22.465,VALID,77,VALID,0,
2009-03-23, 00:53:05,VALID,1010.3,VALID,0,VALID,85.7897,VALID,0,VALID,22.4861,VALID,77,VALID,0,
2009-03-23, 00:54:05,VALID,1010.31,VALID,0,VALID,85.7745,VALID,0,VALID,22.4667,VALID,30,VALID,0,
2009-03-23, 00:55:05,VALID,1010.3,VALID,0,VALID,85.7745,VALID,0,VALID,22.4861,VALID,30,VALID,0,
2009-03-23, 00:56:05,VALID,1010.3,VALID,0,VALID,85.7592,VALID,0,VALID,22.4667,VALID,30,VALID,0,
2009-03-23, 00:57:05,VALID,1010.29,VALID,0,VALID,85.7745,VALID,0.105969,VALID,22.4667,VALID,30,VALID,0,
2009-03-23, 00:58:05,VALID,1010.3,VALID,0,VALID,85.7745,VALID,0,VALID,22.4667,VALID,30,VALID,0,
2009-03-23, 00:59:05,VALID,1010.27,VALID,0,VALID,85.7821,VALID,0,VALID,22.4667,VALID,30,VALID,0,
2009-03-23, 01:00:05,VALID,1010.3,VALID,0,VALID,85.7821,VALID,0,VALID,22.4667,VALID,30,VALID,0,
2009-03-23, 01:01:05,VALID,1010.27,VALID,0,VALID,85.7745,VALID,0,VALID,22.4861,VALID,30,VALID,0,
2009-03-23, 01:02:05,VALID,1010.28,VALID,0,VALID,85.7516,VALID,0,VALID,22.4861,VALID,30,VALID,0,
2009-03-23, 01:03:05,VALID,1010.28,VALID,0,VALID,85.7516,VALID,0.105969,VALID,22.4455,VALID,30,VALID,0,
2009-03-23, 01:04:05,VALID,1010.31,VALID,0,VALID,85.7745,VALID,0.105969,VALID,22.4861,VALID,30,VALID,0,
2009-03-23, 01:05:05,VALID,1010.29,VALID,0,VALID,85.7592,VALID,0,VALID,22.4667,VALID,30,VALID,0,
2009-03-23, 01:06:05,VALID,1010.3,VALID,0,VALID,85.7592,VALID,0,VALID,22.4455,VALID,64,VALID,0,
2009-03-23, 01:07:05,VALID,1010.32,VALID,0,VALID,85.7745,VALID,0.105969,VALID,22.4667,VALID,67,VALID,0,
2009-03-23, 01:08:05,VALID,1010.3,VALID,0,VALID,85.7592,VALID,0,VALID,22.4455,VALID,66,VALID,0,
2009-03-23, 01:09:05,VALID,1010.3,VALID,0,VALID,85.7668,VALID,0,VALID,22.4667,VALID,66,VALID,0,
2009-03-23, 01:10:05,VALID,1010.27,VALID,0,VALID,85.744,VALID,0,VALID,22.4667,VALID,67,VALID,0,
2009-03-23, 01:11:05,VALID,1010.3,VALID,0,VALID,85.7592,VALID,0,VALID,22.4667,VALID,66,VALID,0,
2009-03-23, 01:12:05,VALID,1010.28,VALID,0,VALID,85.7668,VALID,0,VALID,22.426,VALID,66,VALID,0,
2009-03-23, 01:13:05,VALID,1010.26,VALID,0,VALID,85.7516,VALID,0,VALID,22.4667,VALID,66,VALID,0,
2009-03-23, 01:14:05,VALID,1010.25,VALID,0,VALID,85.7821,VALID,0,VALID,22.4667,VALID,66,VALID,0,
2009-03-23, 01:15:05,VALID,1010.22,VALID,0,VALID,85.7668,VALID,0,VALID,22.4667,VALID,66,VALID,0,
2009-03-23, 01:16:05,VALID,1010.22,VALID,0,VALID,85.7745,VALID,0,VALID,22.4667,VALID,66,VALID,0,
2009-03-23, 01:17:05,VALID,1010.17,VALID,0,VALID,85.7897,VALID,0,VALID,22.4667,VALID,66,VALID,0,
2009-03-23, 01:18:05,VALID,1010.16,VALID,0,VALID,85.7592,VALID,0,VALID,22.4667,VALID,67,VALID,0,
2009-03-23, 01:19:05,VALID,1010.16,VALID,0,VALID,85.7745,VALID,0,VALID,22.4667,VALID,66,VALID,0,
2009-03-23, 01:20:05,VALID,1010.15,VALID,0,VALID,85.7745,VALID,0,VALID,22.465,VALID,66,VALID,0,
2009-03-23, 01:21:05,VALID,1010.18,VALID,0,VALID,85.805,VALID,0,VALID,22.4861,VALID,85,VALID,0,
2009-03-23, 01:22:05,VALID,1010.14,VALID,0,VALID,85.805,VALID,0,VALID,22.4667,VALID,85,VALID,0,
2009-03-23, 01:23:05,VALID,1010.16,VALID,0,VALID,85.7821,VALID,0,VALID,22.465,VALID,85,VALID,0,
2009-03-23, 01:24:05,VALID,1010.15,VALID,0,VALID,85.8126,VALID,0,VALID,22.5073,VALID,85,VALID,0,
2009-03-23, 01:25:05,VALID,1010.16,VALID,0,VALID,85.805,VALID,0,VALID,22.4861,VALID,85,VALID,0,
2009-03-23, 01:26:05,VALID,1010.14,VALID,0,VALID,85.8126,VALID,0,VALID,22.4861,VALID,85,VALID,0,
2009-03-23, 01:27:05,VALID,1010.14,VALID,0,VALID,85.8202,VALID,0,VALID,22.4667,VALID,85,VALID,0,
2009-03-23, 01:28:05,VALID,1010.15,VALID,0,VALID,85.8202,VALID,0,VALID,22.4861,VALID,85,VALID,0,
2009-03-23, 01:29:05,VALID,1010.14,VALID,0,VALID,85.8126,VALID,0,VALID,22.4861,VALID,85,VALID,0,
2009-03-23, 01:30:05,VALID,1010.16,VALID,0,VALID,85.7974,VALID,0,VALID,22.4861,VALID,85,VALID,0,
2009-03-23, 01:31:05,VALID,1010.16,VALID,0,VALID,85.8126,VALID,0.105969,VALID,22.5056,VALID,85,VALID,0,
2009-03-23, 01:32:05,VALID,1010.15,VALID,0,VALID,85.8279,VALID,0,VALID,22.4861,VALID,85,VALID,0,
2009-03-23, 01:33:05,VALID,1010.14,VALID,0,VALID,85.8202,VALID,0,VALID,22.4844,VALID,85,VALID,0,
2009-03-23, 01:34:05,VALID,1010.13,VALID,0,VALID,85.8279,VALID,0,VALID,22.4861,VALID,85,VALID,0,
2009-03-23, 01:35:05,VALID,1010.13,VALID,0,VALID,85.8279,VALID,0,VALID,22.4861,VALID,85,VALID,0,
2009-03-23, 01:36:05,VALID,1010.16,VALID,0,VALID,85.8202,VALID,0,VALID,22.4861,VALID,85,VALID,0,
2009-03-23, 01:37:05,VALID,1010.15,VALID,0,VALID,85.8126,VALID,0,VALID,22.5056,VALID,85,VALID,0,
2009-03-23, 01:38:05,VALID,1010.21,VALID,0,VALID,85.8355,VALID,0,VALID,22.5073,VALID,85,VALID,0,
2009-03-23, 01:39:05,VALID,1010.17,VALID,0,VALID,85.8507,VALID,0,VALID,22.4861,VALID,85,VALID,0,
2009-03-23, 01:40:05,VALID,1010.17,VALID,0,VALID,85.8355,VALID,0,VALID,22.4667,VALID,85,VALID,0,
2009-03-23, 01:41:05,VALID,1010.15,VALID,0,VALID,85.8507,VALID,0,VALID,22.4667,VALID,128,VALID,0.431641,
2009-03-23, 01:42:05,VALID,1010.16,VALID,0,VALID,85.8584,VALID,0,VALID,22.4667,VALID,151,VALID,0.482812,
2009-03-23, 01:43:05,VALID,1010.16,VALID,0,VALID,85.8202,VALID,0,VALID,22.4667,VALID,151,VALID,0.455859,
2009-03-23, 01:44:05,VALID,1010.15,VALID,0,VALID,85.8431,VALID,0,VALID,22.465,VALID,161,VALID,0.488672,
2009-03-23, 01:45:05,VALID,1010.14,VALID,0,VALID,85.8431,VALID,0,VALID,22.4861,VALID,161,VALID,0.367188,
2009-03-23, 01:46:05,VALID,1010.14,VALID,0,VALID,85.8507,VALID,0,VALID,22.4667,VALID,161,VALID,0.402734,
2009-03-23, 01:47:05,VALID,1010.09,VALID,0,VALID,85.866,VALID,0,VALID,22.4861,VALID,161,VALID,0.372656,
2009-03-23, 01:48:05,VALID,1010.07,VALID,0,VALID,85.8431,VALID,0,VALID,22.4667,VALID,161,VALID,0.322266,
2009-03-23, 01:49:05,VALID,1010.03,VALID,0,VALID,85.8431,VALID,0,VALID,22.4472,VALID,161,VALID,0.177734,
2009-03-23, 01:50:05,VALID,1010.01,VALID,0,VALID,85.8584,VALID,0,VALID,22.4472,VALID,161,VALID,0.0199219,
2009-03-23, 01:51:05,VALID,1010.02,VALID,0,VALID,85.8584,VALID,0,VALID,22.4472,VALID,161,VALID,0,
2009-03-23, 01:52:05,VALID,1009.96,VALID,0,VALID,85.8736,VALID,0,VALID,22.4277,VALID,161,VALID,0,
2009-03-23, 01:53:05,VALID,1009.95,VALID,0,VALID,85.8584,VALID,0,VALID,22.426,VALID,161,VALID,0,
2009-03-23, 01:54:05,VALID,1009.92,VALID,0,VALID,85.8812,VALID,0,VALID,22.387,VALID,161,VALID,0,
2009-03-23, 01:55:05,VALID,1009.92,VALID,0,VALID,85.866,VALID,0,VALID,22.4065,VALID,161,VALID,0,
2009-03-23, 01:56:05,VALID,1009.91,VALID,0,VALID,85.866,VALID,0,VALID,22.4277,VALID,161,VALID,0,
2009-03-23, 01:57:05,VALID,1009.89,VALID,0,VALID,85.866,VALID,0,VALID,22.387,VALID,161,VALID,0,
2009-03-23, 01:58:05,VALID,1009.88,VALID,0,VALID,85.8736,VALID,0.105969,VALID,22.4065,VALID,161,VALID,0,
2009-03-23, 01:59:05,VALID,1009.9,VALID,0,VALID,85.866,VALID,0.105969,VALID,22.3853,VALID,161,VALID,0,
2009-03-23, 02:00:05,VALID,1009.91,VALID,0,VALID,85.8889,VALID,0.105969,VALID,22.3853,VALID,161,VALID,0,
2009-03-23, 02:01:05,VALID,1009.89,VALID,0,VALID,85.8736,VALID,0.105969,VALID,22.4065,VALID,161,VALID,0,
2009-03-23, 02:02:05,VALID,1009.88,VALID,0,VALID,85.9041,VALID,0.105969,VALID,22.4048,VALID,161,VALID,0,
2009-03-23, 02:03:05,VALID,1009.89,VALID,0,VALID,85.8584,VALID,0.105969,VALID,22.4065,VALID,161,VALID,0,
2009-03-23, 02:04:05,VALID,1009.84,VALID,0,VALID,85.866,VALID,0.105969,VALID,22.3659,VALID,161,VALID,0,
2009-03-23, 02:05:05,VALID,1009.86,VALID,0,VALID,85.8889,VALID,0.105969,VALID,22.387,VALID,161,VALID,0,
2009-03-23, 02:06:05,VALID,1009.87,VALID,0,VALID,85.866,VALID,0.105969,VALID,22.3676,VALID,161,VALID,0,
2009-03-23, 02:07:05,VALID,1009.86,VALID,0,VALID,85.8736,VALID,0.105969,VALID,22.387,VALID,161,VALID,0,
2009-03-23, 02:08:05,VALID,1009.86,VALID,0,VALID,85.8812,VALID,0.105969,VALID,22.3464,VALID,161,VALID,0,
2009-03-23, 02:09:05,VALID,1009.86,VALID,0,VALID,85.8965,VALID,0.105969,VALID,22.3659,VALID,161,VALID,0,
2009-03-23, 02:10:05,VALID,1009.86,VALID,0,VALID,85.9194,VALID,0.105969,VALID,22.3676,VALID,161,VALID,0,
2009-03-23, 02:11:05,VALID,1009.89,VALID,0,VALID,85.9422,VALID,0.105969,VALID,22.3481,VALID,161,VALID,0.212891,
2009-03-23, 02:12:05,VALID,1009.87,VALID,0,VALID,85.9575,VALID,0.105969,VALID,22.3464,VALID,123,VALID,0.172266,
2009-03-23, 02:13:05,VALID,1009.89,VALID,0,VALID,85.9499,VALID,0,VALID,22.3498,VALID,116,VALID,0.0785156,
2009-03-23, 02:14:05,VALID,1009.87,VALID,0,VALID,85.9346,VALID,0,VALID,22.3286,VALID,116,VALID,0,
2009-03-23, 02:15:05,VALID,1009.87,VALID,0,VALID,85.9727,VALID,0,VALID,22.3303,VALID,116,VALID,0,
2009-03-23, 02:16:05,VALID,1009.87,VALID,0,VALID,85.9422,VALID,0,VALID,22.3498,VALID,116,VALID,0,
2009-03-23, 02:17:05,VALID,1009.84,VALID,0,VALID,85.9499,VALID,0,VALID,22.3286,VALID,116,VALID,0,
2009-03-23, 02:18:05,VALID,1009.86,VALID,0,VALID,85.9804,VALID,0,VALID,22.3303,VALID,116,VALID,0,
2009-03-23, 02:19:05,VALID,1009.88,VALID,0,VALID,85.9651,VALID,0,VALID,22.3108,VALID,116,VALID,0,
2009-03-23, 02:20:05,VALID,1009.91,VALID,0,VALID,85.9727,VALID,0,VALID,22.2914,VALID,116,VALID,0,
2009-03-23, 02:21:05,VALID,1009.88,VALID,0,VALID,85.9727,VALID,0,VALID,22.2914,VALID,116,VALID,0,
2009-03-23, 02:22:05,VALID,1009.92,VALID,0,VALID,85.988,VALID,0,VALID,22.2719,VALID,116,VALID,0.322266,
2009-03-23, 02:23:05,VALID,1009.9,VALID,0,VALID,85.988,VALID,0.105969,VALID,22.2719,VALID,116,VALID,0.296094,
2009-03-23, 02:24:05,VALID,1009.89,VALID,0,VALID,86.0109,VALID,0,VALID,22.2524,VALID,116,VALID,0.410156,
2009-03-23, 02:25:05,VALID,1009.88,VALID,0,VALID,85.9956,VALID,0,VALID,22.2719,VALID,123,VALID,0.458594,
2009-03-23, 02:26:05,VALID,1009.91,VALID,0,VALID,86.0033,VALID,0,VALID,22.2702,VALID,130,VALID,0.234766,
2009-03-23, 02:27:05,VALID,1009.9,VALID,0,VALID,86.0033,VALID,0,VALID,22.2719,VALID,130,VALID,0.238281,
2009-03-23, 02:28:05,VALID,1009.88,VALID,0,VALID,86.0033,VALID,0,VALID,22.2719,VALID,130,VALID,0,
2009-03-23, 02:29:05,VALID,1009.89,VALID,0,VALID,86.0185,VALID,0,VALID,22.2719,VALID,146,VALID,0,
2009-03-23, 02:30:05,VALID,1009.91,VALID,0,VALID,86.0185,VALID,0,VALID,22.2719,VALID,157,VALID,0,
2009-03-23, 02:31:05,VALID,1009.92,VALID,0,VALID,86.0109,VALID,0,VALID,22.2914,VALID,157,VALID,0,
2009-03-23, 02:32:05,VALID,1009.91,VALID,0,VALID,86.0414,VALID,0,VALID,22.2702,VALID,157,VALID,0,
2009-03-23, 02:33:05,VALID,1009.92,VALID,0,VALID,86.0185,VALID,0,VALID,22.3108,VALID,157,VALID,0,
2009-03-23, 02:34:05,VALID,1009.91,VALID,0,VALID,86.049,VALID,0,VALID,22.3108,VALID,157,VALID,0,
2009-03-23, 02:35:05,VALID,1009.93,VALID,0,VALID,86.0643,VALID,0.105969,VALID,22.2897,VALID,157,VALID,0,
2009-03-23, 02:36:05,VALID,1009.93,VALID,0,VALID,86.0566,VALID,0,VALID,22.3091,VALID,157,VALID,0,
2009-03-23, 02:37:05,VALID,1009.92,VALID,0,VALID,86.049,VALID,0,VALID,22.3091,VALID,173,VALID,0,
2009-03-23, 02:38:05,VALID,1009.94,VALID,0,VALID,86.0566,VALID,0,VALID,22.3303,VALID,185,VALID,0,
2009-03-23, 02:39:05,VALID,1009.92,VALID,0,VALID,86.0795,VALID,0.105969,VALID,22.3108,VALID,185,VALID,0,
2009-03-23, 02:40:05,VALID,1009.92,VALID,0,VALID,86.0643,VALID,0,VALID,22.3108,VALID,185,VALID,0,
2009-03-23, 02:41:05,VALID,1009.92,VALID,0,VALID,86.0795,VALID,0,VALID,22.2914,VALID,185,VALID,0,
2009-03-23, 02:42:05,VALID,1009.89,VALID,0,VALID,86.0719,VALID,0,VALID,22.2719,VALID,185,VALID,0,
2009-03-23, 02:43:05,VALID,1009.91,VALID,0,VALID,86.0871,VALID,0,VALID,22.2312,VALID,185,VALID,0,
2009-03-23, 02:44:05,VALID,1009.9,VALID,0,VALID,86.0795,VALID,0,VALID,22.2719,VALID,185,VALID,0,
2009-03-23, 02:45:05,VALID,1009.91,VALID,0,VALID,86.0719,VALID,0.105969,VALID,22.2312,VALID,185,VALID,0,
2009-03-23, 02:46:05,VALID,1009.91,VALID,0,VALID,86.0871,VALID,0,VALID,22.2329,VALID,185,VALID,0,
2009-03-23, 02:47:05,VALID,1009.93,VALID,0,VALID,86.11,VALID,0,VALID,22.2312,VALID,182,VALID,0.380469,
2009-03-23, 02:48:05,VALID,1009.91,VALID,0,VALID,86.0871,VALID,0,VALID,22.2312,VALID,182,VALID,0.280469,
2009-03-23, 02:49:05,VALID,1009.92,VALID,0,VALID,86.0948,VALID,0,VALID,22.2118,VALID,182,VALID,0.300781,
2009-03-23, 02:50:05,VALID,1009.93,VALID,0,VALID,86.0871,VALID,0,VALID,22.2524,VALID,182,VALID,0.103125,
2009-03-23, 02:51:05,VALID,1009.93,VALID,0,VALID,86.11,VALID,0,VALID,22.2329,VALID,182,VALID,0,
2009-03-23, 02:52:05,VALID,1009.95,VALID,0,VALID,86.1024,VALID,0,VALID,22.2118,VALID,182,VALID,0.466406,
2009-03-23, 02:53:05,VALID,1009.94,VALID,0,VALID,86.1329,VALID,0,VALID,22.2719,VALID,182,VALID,0.355469,
2009-03-23, 02:54:05,VALID,1009.98,VALID,0,VALID,86.1024,VALID,0,VALID,22.2719,VALID,182,VALID,0,
2009-03-23, 02:55:05,VALID,1009.94,VALID,0,VALID,86.1176,VALID,0,VALID,22.2719,VALID,182,VALID,0.0890625,
2009-03-23, 02:56:05,VALID,1009.96,VALID,0,VALID,86.1253,VALID,0,VALID,22.3108,VALID,182,VALID,0.04375,
2009-03-23, 02:57:05,VALID,1009.98,VALID,0,VALID,86.1176,VALID,0,VALID,22.3091,VALID,182,VALID,0,
2009-03-23, 02:58:05,VALID,1009.97,VALID,0,VALID,86.1253,VALID,0.105969,VALID,22.3091,VALID,182,VALID,0,
2009-03-23, 02:59:05,VALID,1009.99,VALID,0,VALID,86.1176,VALID,0.105969,VALID,22.3303,VALID,182,VALID,0,
2009-03-23, 03:00:05,VALID,1009.99,VALID,0,VALID,86.1329,VALID,0.105969,VALID,22.3286,VALID,182,VALID,0,
2009-03-23, 03:01:05,VALID,1010,VALID,0,VALID,86.1176,VALID,0,VALID,22.3091,VALID,182,VALID,0,
2009-03-23, 03:02:05,VALID,1009.99,VALID,0,VALID,86.1253,VALID,0.105969,VALID,22.3498,VALID,182,VALID,0,
2009-03-23, 03:03:05,VALID,1010,VALID,0,VALID,86.1176,VALID,0.105969,VALID,22.3286,VALID,182,VALID,0,
2009-03-23, 03:04:05,VALID,1009.97,VALID,0,VALID,86.11,VALID,0,VALID,22.3303,VALID,182,VALID,0,
2009-03-23, 03:05:05,VALID,1009.96,VALID,0,VALID,86.1176,VALID,0,VALID,22.3091,VALID,182,VALID,0,
2009-03-23, 03:06:05,VALID,1009.98,VALID,0,VALID,86.11,VALID,0,VALID,22.3091,VALID,182,VALID,0,
2009-03-23, 03:07:05,VALID,1009.98,VALID,0,VALID,86.11,VALID,0.105969,VALID,22.3108,VALID,182,VALID,0,
2009-03-23, 03:08:05,VALID,1009.96,VALID,0,VALID,86.1176,VALID,0,VALID,22.2719,VALID,182,VALID,0,
2009-03-23, 03:09:05,VALID,1009.99,VALID,0,VALID,86.1329,VALID,0,VALID,22.2914,VALID,182,VALID,0,
2009-03-23, 03:10:05,VALID,1010,VALID,0,VALID,86.1253,VALID,0,VALID,22.2524,VALID,182,VALID,0,
2009-03-23, 03:11:05,VALID,1010.01,VALID,0,VALID,86.1329,VALID,0,VALID,22.2719,VALID,182,VALID,0,
2009-03-23, 03:12:05,VALID,1010.01,VALID,0,VALID,86.1253,VALID,0,VALID,22.2719,VALID,182,VALID,0,
2009-03-23, 03:13:05,VALID,1010.02,VALID,0,VALID,86.1176,VALID,0,VALID,22.2719,VALID,182,VALID,0,
2009-03-23, 03:14:05,VALID,1010.02,VALID,0,VALID,86.1253,VALID,0,VALID,22.2524,VALID,182,VALID,0,
2009-03-23, 03:15:05,VALID,1010.04,VALID,0,VALID,86.1253,VALID,0,VALID,22.2524,VALID,182,VALID,0,
2009-03-23, 03:16:05,VALID,1010.05,VALID,0,VALID,86.1253,VALID,0,VALID,22.2118,VALID,182,VALID,0,
2009-03-23, 03:17:05,VALID,1010.07,VALID,0,VALID,86.1176,VALID,0,VALID,22.2118,VALID,182,VALID,0,
2009-03-23, 03:18:05,VALID,1010.08,VALID,0,VALID,86.1024,VALID,0,VALID,22.2329,VALID,182,VALID,0,
2009-03-23, 03:19:05,VALID,1010.11,VALID,0,VALID,86.11,VALID,0,VALID,22.2134,VALID,182,VALID,0,
2009-03-23, 03:20:05,VALID,1010.1,VALID,0,VALID,86.11,VALID,0,VALID,22.1745,VALID,182,VALID,0,
2009-03-23, 03:21:05,VALID,1010.08,VALID,0,VALID,86.1024,VALID,0,VALID,22.155,VALID,182,VALID,0,
2009-03-23, 03:22:05,VALID,1010.1,VALID,0,VALID,86.1253,VALID,0.105969,VALID,22.1533,VALID,182,VALID,0,
2009-03-23, 03:23:05,VALID,1010.1,VALID,0,VALID,86.11,VALID,0,VALID,22.155,VALID,182,VALID,0,
2009-03-23, 03:24:05,VALID,1010.09,VALID,0,VALID,86.1024,VALID,0,VALID,22.1355,VALID,182,VALID,0,
2009-03-23, 03:25:04,VALID,1010.08,VALID,0,VALID,86.0948,VALID,0,VALID,22.1355,VALID,182,VALID,0,
2009-03-23, 03:26:04,VALID,1010.09,VALID,0,VALID,86.1329,VALID,0,VALID,22.1355,VALID,182,VALID,0,
2009-03-23, 03:27:04,VALID,1010.07,VALID,0,VALID,86.1253,VALID,0,VALID,22.155,VALID,182,VALID,0,
2009-03-23, 03:28:04,VALID,1010.08,VALID,0,VALID,86.1558,VALID,0.105969,VALID,22.1728,VALID,182,VALID,0,
2009-03-23, 03:29:04,VALID,1010.07,VALID,0,VALID,86.171,VALID,0.105969,VALID,22.1728,VALID,182,VALID,0,
2009-03-23, 03:30:04,VALID,1010.1,VALID,0,VALID,86.1481,VALID,0.105969,VALID,22.1728,VALID,182,VALID,0,
2009-03-23, 03:31:04,VALID,1010.1,VALID,0,VALID,86.171,VALID,0.105969,VALID,22.1533,VALID,182,VALID,0,
2009-03-23, 03:32:04,VALID,1010.07,VALID,0,VALID,86.1558,VALID,0.211938,VALID,22.1533,VALID,182,VALID,0,
2009-03-23, 03:33:04,VALID,1010.1,VALID,0,VALID,86.171,VALID,0.105969,VALID,22.1339,VALID,182,VALID,0,
2009-03-23, 03:34:04,VALID,1010.11,VALID,0,VALID,86.1786,VALID,0.105969,VALID,22.1533,VALID,182,VALID,0,
2009-03-23, 03:35:04,VALID,1010.12,VALID,0,VALID,86.1863,VALID,0.105969,VALID,22.1339,VALID,182,VALID,0,
2009-03-23, 03:36:04,VALID,1010.14,VALID,0,VALID,86.1634,VALID,0.105969,VALID,22.0949,VALID,182,VALID,0,
2009-03-23, 03:37:04,VALID,1010.13,VALID,0,VALID,86.1786,VALID,0.105969,VALID,22.056,VALID,175,VALID,0,
2009-03-23, 03:38:04,VALID,1010.14,VALID,0,VALID,86.171,VALID,0.105969,VALID,22.0365,VALID,167,VALID,0,
2009-03-23, 03:39:04,VALID,1010.13,VALID,0,VALID,86.2015,VALID,0.105969,VALID,22.056,VALID,167,VALID,0,
2009-03-23, 03:40:04,VALID,1010.14,VALID,0,VALID,86.1939,VALID,0.105969,VALID,22.0949,VALID,164,VALID,0.759766,
2009-03-23, 03:41:04,VALID,1010.15,VALID,0,VALID,86.1939,VALID,0.105969,VALID,22.0738,VALID,151,VALID,0.689062,
2009-03-23, 03:42:04,VALID,1010.13,VALID,0,VALID,86.2091,VALID,0.105969,VALID,22.0932,VALID,150,VALID,0.766797,
2009-03-23, 03:43:04,VALID,1010.11,VALID,0,VALID,86.1939,VALID,0,VALID,22.0966,VALID,147,VALID,0.664063,
2009-03-23, 03:44:04,VALID,1010.12,VALID,0,VALID,86.2091,VALID,0,VALID,22.1372,VALID,146,VALID,0.671094,
2009-03-23, 03:45:04,VALID,1010.14,VALID,0,VALID,86.1939,VALID,0,VALID,22.0966,VALID,145,VALID,0.4375,
2009-03-23, 03:46:04,VALID,1010.12,VALID,0,VALID,86.1863,VALID,0,VALID,22.0966,VALID,159,VALID,0.423438,
2009-03-23, 03:47:04,VALID,1010.13,VALID,0,VALID,86.1939,VALID,0,VALID,22.1161,VALID,147,VALID,0.547266,
2009-03-23, 03:48:04,VALID,1010.15,VALID,0,VALID,86.1939,VALID,0,VALID,22.194,VALID,135,VALID,0.995703,
2009-03-23, 03:49:04,VALID,1010.16,VALID,0,VALID,86.2168,VALID,0,VALID,22.2151,VALID,138,VALID,0.957422,
2009-03-23, 03:50:04,VALID,1010.18,VALID,0,VALID,86.2168,VALID,0,VALID,22.194,VALID,147,VALID,0.746094,
2009-03-23, 03:51:04,VALID,1010.2,VALID,0,VALID,86.2244,VALID,0,VALID,22.194,VALID,143,VALID,0.610937,